When you browse on this site, cookies collect data to enhance your experience and personalize the content and advertising you see.
Visit our Privacy Policy to learn more. By continuing to use the site, you agree to this use of cookies and data.
  • en Belgique
  • Liste des pays
  • À 7 jours
  • Température de l'eau
  • Carte satellitaire
  • Carte météo
  • Widgets météo
  • user-avatar
    Se connecter

    Météo par heure à Kinelskiy

    Ce jour, 17 Novembre, Samedi

    Heure Température Précipitation Vent Pression Humidité
    00:00 -5°C° 0 mm 2 m/s 777 mmHg 29%
    01:00 -5°C° 0 mm 2 m/s 777 mmHg 29%
    02:00 -5°C° 0 mm 2 m/s 776 mmHg 29%
    03:00 -5°C° 0 mm 2 m/s 776 mmHg 29%
    04:00 -5°C° 0 mm 2 m/s 775 mmHg 28%
    05:00 -6°C° 0 mm 3 m/s 775 mmHg 28%
    06:00 -6°C° 0 mm 3 m/s 774 mmHg 28%
    07:00 -6°C° 0 mm 3 m/s 774 mmHg 26%
    08:00 -5°C° 0 mm 3 m/s 773 mmHg 25%
    09:00 -4°C° 0 mm 4 m/s 773 mmHg 23%
    10:00 -3°C° 0 mm 4 m/s 772 mmHg 23%
    11:00 -2°C° 0 mm 4 m/s 772 mmHg 22%
    12:00 -1°C° 0 mm 4 m/s 771 mmHg 22%
    13:00 -1°C° 0 mm 4 m/s 771 mmHg 24%
    14:00 -1°C° 0 mm 4 m/s 770 mmHg 26%
    15:00 -1°C° 0 mm 3 m/s 770 mmHg 28%
    16:00 -1°C° 0 mm 3 m/s 769 mmHg 29%
    17:00 -1°C° 0 mm 3 m/s 769 mmHg 30%
    18:00 -2°C° 0 mm 3 m/s 768 mmHg 31%
    19:00 -2°C° 0 mm 3 m/s 768 mmHg 32%
    20:00 -2°C° 0 mm 3 m/s 767 mmHg 32%
    21:00 -2°C° 0 mm 3 m/s 767 mmHg 32%
    22:00 -2°C° 0 mm 3 m/s 766 mmHg 32%
    23:00 -2°C° 0 mm 3 m/s 766 mmHg 32%

    Demain, 18 Novembre, Dimanche

    Heure Température Précipitation Vent Pression Humidité
    00:00 -2°C° 0 mm 3 m/s 766 mmHg 32%
    01:00 -2°C° 0 mm 3 m/s 765 mmHg 32%
    02:00 -2°C° 0 mm 3 m/s 765 mmHg 32%
    03:00 -2°C° 0 mm 3 m/s 765 mmHg 33%
    04:00 -3°C° 0 mm 4 m/s 764 mmHg 33%
    05:00 -3°C° 0 mm 4 m/s 764 mmHg 34%
    06:00 -3°C° 0 mm 4 m/s 764 mmHg 34%
    07:00 -3°C° 0 mm 4 m/s 764 mmHg 34%
    08:00 -2°C° 0 mm 4 m/s 763 mmHg 33%
    09:00 -2°C° 0 mm 4 m/s 763 mmHg 32%
    10:00 -1°C° 0 mm 4 m/s 764 mmHg 32%
    11:00 -1°C° 0 mm 4 m/s 764 mmHg 32%
    12:00 0°C° 0 mm 4 m/s 764 mmHg 31%
    13:00 0°C° 0 mm 3 m/s 764 mmHg 33%
    14:00 0°C° 0 mm 3 m/s 764 mmHg 35%
    15:00 -1°C° 0 mm 3 m/s 764 mmHg 37%
    16:00 -1°C° 0 mm 3 m/s 764 mmHg 38%
    17:00 -2°C° 0 mm 3 m/s 764 mmHg 39%
    18:00 -2°C° 0 mm 3 m/s 764 mmHg 41%
    19:00 -2°C° 0 mm 3 m/s 765 mmHg 41%
    20:00 -4°C° 0 mm 3 m/s 765 mmHg 41%
    21:00 -3°C° 0 mm 2 m/s 765 mmHg 41%
    22:00 -3°C° 0 mm 2 m/s 765 mmHg 42%
    23:00 -3°C° 0 mm 2 m/s 765 mmHg 43%

    Après-demain, 19 Novembre, Lundi

    Heure Température Précipitation Vent Pression Humidité
    00:00 -3°C° 0 mm 2 m/s 766 mmHg 44%
    01:00 -3°C° 0 mm 2 m/s 766 mmHg 45%
    02:00 -3°C° 0 mm 2 m/s 766 mmHg 46%
    03:00 -3°C° 0 mm 2 m/s 766 mmHg 47%
    04:00 -4°C° 0 mm 2 m/s 766 mmHg 47%
    05:00 -4°C° 0 mm 2 m/s 766 mmHg 47%
    06:00 -4°C° 0 mm 2 m/s 767 mmHg 47%
    07:00 -4°C° 0 mm 2 m/s 767 mmHg 46%
    08:00 -1°C° 0 mm 1 m/s 767 mmHg 44%
    09:00 -1°C° 0 mm 1 m/s 767 mmHg 43%
    10:00 0°C° 0 mm 1 m/s 768 mmHg 42%
    11:00 -1°C° 0 mm 2 m/s 768 mmHg 40%
    12:00 +1°C° 0 mm 2 m/s 768 mmHg 39%
    13:00 +1°C° 0 mm 1 m/s 768 mmHg 42%
    14:00 +1°C° 0 mm 1 m/s 768 mmHg 45%
    15:00 0°C° 0 mm 1 m/s 768 mmHg 47%
    16:00 0°C° 0 mm 1 m/s 768 mmHg 51%
    17:00 0°C° 0 mm 1 m/s 768 mmHg 54%
    18:00 -1°C° 0 mm 1 m/s 768 mmHg 57%
    19:00 -1°C° 0 mm 1 m/s 768 mmHg 62%
    20:00 -1°C° 0 mm 1 m/s 768 mmHg 66%
    21:00 -1°C° 0 mm 1 m/s 768 mmHg 70%
    22:00 -1°C° 0 mm 1 m/s 768 mmHg 74%
    23:00 -1°C° 0 mm 1 m/s 768 mmHg 78%

    20 Novembre, Mardi

    Heure Température Précipitation Vent Pression Humidité
    00:00 -1°C° 0 mm 1 m/s 769 mmHg 81%
    01:00 -1°C° 0 mm 1 m/s 768 mmHg 83%
    02:00 -1°C° 0 mm 1 m/s 768 mmHg 86%
    03:00 -1°C° 0 mm 1 m/s 768 mmHg 88%
    04:00 -2°C° 0 mm 0 m/s 768 mmHg 89%
    05:00 -2°C° 0 mm 0 m/s 768 mmHg 91%
    06:00 -2°C° 0 mm 0 m/s 768 mmHg 93%
    07:00 -1°C° 0 mm 0 m/s 768 mmHg 92%
    08:00 -1°C° 0 mm 0 m/s 768 mmHg 92%
    09:00 -1°C° 0 mm 0 m/s 768 mmHg 91%
    10:00 0°C° 0 mm 0 m/s 768 mmHg 89%
    11:00 0°C° 0 mm 0 m/s 767 mmHg 87%
    12:00 +1°C° 0 mm 1 m/s 767 mmHg 85%
    13:00 +1°C° 0 mm 1 m/s 767 mmHg 86%
    14:00 +1°C° 0 mm 1 m/s 767 mmHg 88%
    15:00 +1°C° 0 mm 1 m/s 767 mmHg 90%
    16:00 +1°C° 0 mm 1 m/s 766 mmHg 91%
    17:00 0°C° 0 mm 1 m/s 766 mmHg 92%
    18:00 0°C° 0 mm 1 m/s 766 mmHg 93%
    19:00 0°C° 0 mm 1 m/s 766 mmHg 93%
    20:00 0°C° 0 mm 1 m/s 766 mmHg 92%
    21:00 0°C° 0 mm 1 m/s 765 mmHg 92%
    22:00 -1°C° 0 mm 1 m/s 765 mmHg 91%
    23:00 -1°C° 0 mm 1 m/s 765 mmHg 90%

    21 Novembre, Mercredi

    Heure Température Précipitation Vent Pression Humidité
    00:00 -1°C° 0 mm 1 m/s 765 mmHg 89%
    01:00 -1°C° 0 mm 1 m/s 764 mmHg 88%
    02:00 -1°C° 0 mm 1 m/s 764 mmHg 88%
    03:00 -3°C° 0 mm 2 m/s 764 mmHg 87%
    04:00 -3°C° 0 mm 2 m/s 763 mmHg 87%
    05:00 -3°C° 0 mm 2 m/s 763 mmHg 87%
    06:00 -4°C° 0 mm 2 m/s 763 mmHg 87%
    07:00 -3°C° 0 mm 2 m/s 762 mmHg 87%
    08:00 -3°C° 0 mm 2 m/s 762 mmHg 86%
    09:00 -3°C° 0 mm 2 m/s 762 mmHg 85%
    10:00 -2°C° 0 mm 3 m/s 761 mmHg 83%
    11:00 -2°C° 0 mm 3 m/s 761 mmHg 81%
    12:00 -1°C° 0 mm 3 m/s 760 mmHg 79%
    13:00 -1°C° 0 mm 3 m/s 760 mmHg 81%
    14:00 -2°C° 0 mm 3 m/s 760 mmHg 82%
    15:00 -2°C° 0 mm 3 m/s 759 mmHg 84%
    16:00 -2°C° 0.1 mm 3 m/s 759 mmHg 86%
    17:00 -2°C° 0.1 mm 3 m/s 759 mmHg 87%
    18:00 -3°C° 0.1 mm 4 m/s 758 mmHg 89%
    19:00 -3°C° 0.2 mm 4 m/s 758 mmHg 89%
    20:00 -3°C° 0.2 mm 4 m/s 758 mmHg 88%
    21:00 -2°C° 0.2 mm 3 m/s 757 mmHg 88%
    22:00 -4°C° 0 mm 3 m/s 757 mmHg 88%
    23:00 -4°C° 0 mm 3 m/s 757 mmHg 87%

    22 Novembre, Jeudi

    Heure Température Précipitation Vent Pression Humidité
    00:00 -4°C° 0 mm 3 m/s 756 mmHg 87%
    01:00 -4°C° 0 mm 3 m/s 756 mmHg 87%
    02:00 -4°C° 0 mm 3 m/s 756 mmHg 88%
    03:00 -4°C° 0 mm 3 m/s 756 mmHg 88%
    04:00 -4°C° 0 mm 3 m/s 756 mmHg 87%
    05:00 -4°C° 0 mm 3 m/s 756 mmHg 86%
    06:00 -5°C° 0 mm 3 m/s 756 mmHg 86%
    07:00 -5°C° 0 mm 3 m/s 756 mmHg 82%
    08:00 -5°C° 0 mm 3 m/s 756 mmHg 79%
    09:00 -5°C° 0 mm 3 m/s 756 mmHg 76%
    10:00 -5°C° 0 mm 3 m/s 756 mmHg 72%
    11:00 -5°C° 0 mm 3 m/s 756 mmHg 68%
    12:00 -5°C° 0 mm 3 m/s 756 mmHg 64%
    13:00 -4°C° 0 mm 2 m/s 755 mmHg 66%
    14:00 -4°C° 0 mm 2 m/s 755 mmHg 67%
    15:00 -4°C° 0 mm 2 m/s 755 mmHg 68%
    16:00 -6°C° 0 mm 3 m/s 755 mmHg 71%
    17:00 -6°C° 0 mm 3 m/s 754 mmHg 73%
    18:00 -6°C° 0 mm 3 m/s 754 mmHg 76%
    19:00 -7°C° 0.1 mm 4 m/s 754 mmHg 78%
    20:00 -7°C° 0.1 mm 4 m/s 754 mmHg 81%
    21:00 -7°C° 0.1 mm 5 m/s 753 mmHg 84%
    22:00 -6°C° 0.2 mm 5 m/s 753 mmHg 85%
    23:00 -6°C° 0.2 mm 5 m/s 753 mmHg 85%
    Voir plus